Wind_Speed
4 4 5 5 5 4 5 5 6 7 8 8 7 5 5 4 4 5 6 9 9 11 12 11 9 4 1 4 3 2 3 11 19 24 20 15 22 19 17 17 16 17 14 9 6 5 5 6 8 9 5 2 2 1 1 2 3 5 3 3 2 2 1 3 4 4 2 1 3 2 3 8 6 3 4 5 9 8 7 8 7 8 8 8 10 12 14 17
4 4 4 5 4 4 5 5 7 8 8 8 7 6 6 5 4 5 7 9 10 12 12 11 10 5 2 4 4 2 2 9 17 19 18 20 22 17 15 17 15 15 14 10 8 7 5 4 8 10 5 1 2 1 2 2 3 4 3 4 2 4 2 3 5 5 2 3 4 0 2 5 5 5 3 4 3 4 8 5 5 8 7 8 11 14 16 18
4 4 4 4 4 4 5 6 7 8 9 7 7 7 6 5 4 6 8 9 10 12 13 11 12 6 2 3 3 2 3 5 12 12 19 23 20 16 15 15 15 15 13 10 9 7 4 3 6 5 3 1 2 2 3 3 3 2 4 4 3 5 3 3 4 5 4 4 6 2 2 3 1 2 3 6 5 2 6 4 3 6 5 5 7 11 15 17
4 4 4 4 4 4 5 7 8 9 8 7 6 7 6 5 5 6 8 8 10 12 13 11 12 11 6 1 2 2 2 4 5 10 20 22 19 18 17 15 15 13 11 10 8 7 6 5 2 1 3 1 3 3 3 2 1 2 3 3 5 4 2 4 4 4 3 4 7 4 3 4 1 1 4 9 7 1 4 5 6 8 8 7 5 8 12 15
5 4 3 4 4 5 6 8 9 8 7 6 6 6 6 5 5 7 7 8 9 11 11 10 10 11 8 5 3 6 3 5 5 13 20 20 19 17 16 15 13 10 10 9 7 6 4 1 3 4 4 1 4 4 2 3 3 3 1 3 5 4 2 5 5 3 1 4 6 4 3 3 1 3 3 7 4 4 5 5 8 9 8 8 7 8 10 11
4 3 3 4 4 5 7 8 8 7 6 6 6 6 5 5 5 6 6 7 8 9 9 7 5 5 4 8 9 5 6 3 7 15 20 18 17 15 14 14 13 11 9 7 5 6 5 3 4 3 3 3 3 3 2 5 4 3 2 2 2 3 3 3 3 3 4 7 5 5 3 3 4 3 1 2 3 5 6 7 9 9 11 12 10 9 8 8
3 3 4 3 5 6 7 7 6 6 6 6 6 5 4 4 6 6 6 7 7 8 8 5 1 2 3 2 10 11 7 1 9 16 18 17 15 13 12 13 15 11 7 7 7 5 6 7 5 3 4 3 1 2 3 5 6 5 1 2 1 3 4 5 5 3 4 7 6 6 5 4 6 4 2 3 3 6 7 9 11 11 14 14 10 8 8 9
3 3 3 4 5 6 6 6 5 5 6 6 5 4 4 5 5 5 5 6 7 9 9 5 2 4 4 3 4 8 5 4 14 17 18 16 13 14 12 14 16 10 9 13 9 3 4 7 3 1 3 2 2 2 3 4 6 4 3 3 2 2 4 5 5 3 4 4 4 6 5 3 6 5 4 5 6 7 8 9 10 11 11 10 8 7 8 9
3 3 4 4 5 6 6 5 5 5 6 5 3 3 3 4 4 4 5 5 6 9 11 11 5 5 6 5 5 5 4 9 15 17 19 17 12 14 14 15 16 12 13 15 14 9 5 3 0 2 4 2 3 2 2 2 1 2 3 3 3 2 4 3 4 3 4 3 4 6 2 1 5 4 3 6 8 7 8 8 8 9 8 7 6 6 8 8
3 3 4 5 5 6 5 4 4 5 6 5 3 3 3 3 3 3 4 5 5 7 9 12 11 9 8 5 6 6 6 11 16 16 18 17 12 13 15 16 17 14 13 14 17 12 4 2 3 3 6 2 3 2 2 2 2 3 2 2 2 2 4 2 4 4 4 5 5 6 2 2 4 2 1 7 8 8 9 8 7 8 8 7 6 6 9 10
3 4 5 5 6 5 4 4 5 7 7 4 3 3 3 3 3 3 3 3 4 7 7 7 8 12 17 12 7 5 8 12 17 18 17 15 11 11 14 14 15 15 12 13 14 10 5 1 5 3 3 2 2 3 2 2 1 1 2 0 2 5 6 2 2 5 2 4 4 7 3 1 2 3 5 11 10 9 11 9 8 8 7 7 6 6 8 10
4 5 5 5 5 3 3 5 7 9 7 4 3 4 4 3 3 4 4 3 4 5 5 6 6 5 13 15 6 3 9 12 17 18 15 14 10 8 10 12 13 12 10 10 11 12 11 4 5 4 1 3 2 2 1 2 2 1 3 0 6 8 6 5 3 5 1 2 5 8 3 2 5 7 6 12 12 10 10 10 8 8 7 6 6 5 6 9
5 5 5 4 4 3 5 8 9 8 6 5 5 5 4 3 4 5 6 4 3 2 2 5 7 4 6 7 3 6 11 12 17 19 16 14 10 5 7 9 9 9 10 8 9 14 12 6 11 7 2 5 2 1 2 2 4 1 3 3 4 8 4 5 3 4 2 3 7 6 2 6 9 9 6 12 13 11 10 10 8 8 6 6 6 5 5 8
4 5 4 4 4 5 7 10 9 7 7 7 5 4 3 4 7 9 9 7 3 2 3 3 6 8 8 2 1 9 13 12 18 23 21 17 12 6 6 7 6 8 9 8 9 12 11 9 13 8 2 5 1 1 3 6 5 2 3 3 3 4 3 7 5 2 2 3 7 4 4 7 8 7 8 12 13 13 11 10 9 8 7 6 6 6 5 6
4 4 4 5 5 7 9 9 9 11 13 10 7 4 3 4 6 7 8 9 6 3 4 5 4 6 7 2 2 10 15 16 22 26 23 19 14 9 11 12 7 7 9 10 9 8 13 14 12 5 3 4 4 4 4 4 5 4 2 3 3 2 4 10 6 2 1 3 3 3 4 8 8 6 10 11 12 13 11 11 10 8 8 7 6 6 5 5
5 5 5 6 7 8 8 8 8 13 17 16 14 12 7 2 2 3 6 7 10 7 4 6 6 5 5 1 5 10 14 16 21 25 22 17 11 9 18 15 6 8 9 11 11 8 14 15 7 3 3 5 6 4 4 4 5 4 2 2 4 2 4 7 5 1 2 2 3 2 4 6 7 5 9 10 12 12 10 10 10 9 9 8 6 6 6 5
5 5 6 7 7 6 5 5 3 5 8 10 13 15 16 11 2 1 1 2 7 9 9 10 7 5 5 5 6 7 12 14 19 26 25 17 12 13 18 10 5 12 7 10 15 11 10 9 3 2 5 4 3 3 3 4 4 4 3 1 4 3 3 4 6 5 3 2 4 3 5 8 8 4 7 12 12 12 11 10 10 9 8 7 6 6 6 5
5 6 7 6 5 5 5 3 2 3 2 4 6 8 14 19 15 10 7 4 1 4 9 13 9 5 4 8 6 10 15 15 17 26 26 17 12 14 15 6 5 11 7 6 12 9 6 5 3 2 4 5 5 6 3 3 3 3 3 2 4 3 3 5 5 4 4 2 5 5 6 10 10 5 7 10 12 12 11 10 8 8 8 7 7 6 6 6
5 6 6 5 5 6 6 5 4 4 5 5 5 3 3 9 16 22 24 18 7 4 3 7 6 4 2 6 8 15 13 10 17 24 27 20 12 13 14 8 5 7 6 3 6 6 3 4 5 3 3 4 3 3 4 6 6 6 5 4 5 5 5 7 7 5 2 3 7 8 7 9 10 6 8 9 10 11 8 8 7 6 7 6 6 6 5 5
6 6 5 6 7 7 7 6 5 4 5 5 4 2 1 2 6 11 17 16 7 4 4 2 1 3 2 4 10 15 8 6 14 22 29 23 10 10 12 9 7 7 5 1 3 4 4 5 4 1 4 6 6 5 5 4 5 5 4 4 6 6 6 7 7 6 2 2 7 7 7 11 12 8 9 9 8 9 8 8 7 6 6 6 6 6 6 6
5 4 4 6 7 8 8 8 8 7 4 1 0 3 2 2 5 2 3 6 3 5 7 1 1 3 1 3 9 12 3 3 11 19 28 21 6 6 7 6 7 6 3 2 2 3 5 6 1 6 8 7 5 4 3 1 1 2 3 4 5 5 7 8 7 6 3 3 7 8 8 12 12 8 9 9 8 9 10 10 8 7 6 5 6 6 5 4
3 3 3 5 7 9 9 8 8 10 9 9 10 9 4 4 8 6 4 4 3 6 5 3 4 2 2 0 8 10 3 5 10 15 25 20 8 4 2 5 7 2 5 3 2 5 6 2 6 8 6 4 1 3 3 1 1 1 0 1 4 4 5 8 6 4 3 4 9 9 6 10 11 7 5 8 8 6 7 9 8 8 7 5 6 5 5 5
2 1 1 4 5 7 9 9 7 6 8 11 13 11 7 8 8 5 4 5 1 3 3 4 4 4 4 3 10 10 5 6 4 10 20 16 6 3 3 5 5 2 6 5 4 3 3 3 7 4 2 2 1 4 5 4 2 1 1 2 5 4 2 5 4 2 2 3 8 10 7 7 7 4 2 0 3 5 5 7 7 7 7 5 5 6 5 5
1 0 1 3 4 5 6 8 8 8 9 11 13 10 8 8 6 4 3 4 1 1 1 1 1 2 2 3 10 8 3 3 0 7 16 12 3 3 3 3 4 4 4 3 6 5 1 7 3 4 4 2 0 4 5 4 4 3 4 4 5 5 3 6 6 7 7 5 5 6 7 5 4 3 2 4 4 6 5 7 7 5 6 6 6 6 5 5
1 1 1 3 5 6 4 4 7 8 8 8 10 8 7 6 2 2 3 4 3 3 2 1 1 4 3 5 10 5 2 2 1 4 10 9 4 2 3 2 4 3 2 1 4 3 2 5 1 4 5 5 2 4 1 1 4 5 5 7 8 6 6 8 8 8 8 6 2 5 5 5 4 2 3 1 4 5 4 6 7 5 6 7 6 5 4 3
1 1 1 3 4 6 3 2 5 5 4 4 5 5 5 4 2 2 3 5 3 4 5 3 1 7 7 6 9 4 3 4 4 4 8 10 5 2 3 3 2 3 3 3 1 0 1 3 4 4 4 6 5 3 3 3 3 4 5 6 6 5 6 10 10 6 3 6 4 3 1 5 5 4 4 3 4 5 3 4 5 5 6 5 5 4 3 4
1 1 1 3 4 6 3 1 3 3 1 1 2 3 3 3 2 1 2 5 4 3 4 4 2 7 7 7 8 4 2 7 6 6 8 11 7 2 4 3 2 3 1 2 3 2 2 4 6 5 5 6 4 4 4 4 4 4 5 2 3 7 9 11 9 5 4 5 6 2 3 4 4 4 3 2 6 4 3 3 4 5 5 5 4 4 4 4
0 0 2 3 5 5 3 2 1 2 2 1 1 2 4 3 2 1 5 4 3 1 1 3 3 6 6 7 9 6 0 5 3 5 10 13 9 3 4 2 1 3 2 4 2 5 2 2 3 3 5 3 2 4 3 5 2 7 6 2 5 8 9 10 7 5 3 2 6 4 1 2 5 3 2 2 5 4 6 5 5 6 5 5 4 5 5 4
1 2 3 4 4 3 3 3 1 2 2 3 3 2 4 3 1 3 6 3 2 2 1 2 4 6 7 7 8 5 3 3 2 6 10 11 10 6 3 0 3 2 2 3 2 5 0 2 3 4 3 2 5 6 4 6 5 7 5 4 6 6 7 6 3 3 1 1 5 6 1 0 5 4 1 1 3 5 5 4 5 6 5 4 5 5 5 4
3 3 3 4 4 2 2 2 2 4 3 3 3 3 4 2 4 6 4 0 1 2 1 2 3 4 7 7 6 6 5 3 2 5 6 5 8 8 3 1 4 4 2 4 0 4 3 2 2 3 2 3 3 5 3 6 6 6 6 5 6 5 3 2 0 1 2 2 6 6 2 2 3 5 3 3 4 5 6 5 3 3 4 4 5 5 5 5
5 5 4 4 3 3 2 1 3 3 3 3 2 3 3 2 5 7 2 1 1 3 3 4 3 4 8 6 4 6 5 5 5 6 6 4 7 8 5 3 4 4 4 6 4 6 6 3 1 2 2 1 4 5 3 1 2 3 4 4 6 6 4 4 4 4 2 5 6 4 2 3 3 5 3 4 2 5 7 7 4 4 5 5 4 4 4 4
9 8 7 6 3 1 0 2 3 3 2 3 3 4 4 2 4 3 1 3 2 3 2 2 4 5 6 4 4 6 4 5 5 4 3 3 5 5 5 3 2 4 5 4 5 6 5 1 3 4 2 2 3 4 6 5 5 5 4 4 5 5 5 5 5 4 3 7 6 3 1 2 5 6 4 4 2 5 7 7 6 4 4 3 2 2 3 3
12 11 9 8 5 3 3 4 3 3 2 3 3 5 6 5 2 1 3 3 1 2 1 1 3 4 4 4 5 6 3 3 5 4 2 2 4 3 3 3 2 3 2 3 4 6 5 4 4 4 2 1 3 2 5 4 4 5 2 2 2 2 4 5 5 4 6 10 5 3 2 5 5 4 3 3 3 5 7 7 5 5 5 3 2 2 4 5
13 13 11 11 9 6 5 4 3 3 2 3 4 5 7 5 0 1 3 3 1 3 2 1 4 5 3 3 3 4 3 3 5 5 4 4 5 3 4 5 5 3 1 2 2 2 4 5 3 2 1 1 0 2 3 2 4 4 2 3 0 2 1 4 4 4 9 12 8 2 2 4 4 3 2 5 6 6 5 5 5 5 5 2 1 2 4 5
9 14 15 15 14 10 6 3 2 2 2 5 7 6 6 2 2 0 1 4 2 4 3 2 3 4 4 3 3 3 2 3 4 5 4 4 3 2 3 4 4 3 2 3 2 1 2 5 6 4 1 0 3 3 3 1 4 3 2 2 2 3 3 3 4 6 7 9 8 3 2 5 2 2 5 6 6 7 4 4 5 5 3 1 0 2 4 5
5 11 15 16 16 13 9 5 2 1 2 6 8 5 3 2 2 2 1 1 1 2 4 4 5 4 4 5 4 4 2 2 3 4 3 2 1 1 1 2 2 2 3 1 2 1 1 5 7 6 4 1 3 3 1 1 2 2 1 2 4 3 5 1 5 3 3 6 6 2 4 4 1 1 4 5 4 4 3 4 5 3 2 2 4 5 6 7
3 7 11 16 18 15 10 4 1 2 4 7 7 3 2 2 2 3 1 1 0 0 3 3 2 2 3 3 4 6 4 2 3 4 3 1 0 0 1 1 1 1 1 2 2 1 1 6 8 4 4 4 2 2 2 1 2 1 2 4 3 1 4 2 2 4 4 8 5 2 7 6 2 3 1 4 6 6 7 7 5 5 7 8 8 8 9 9
2 3 6 14 18 15 10 3 4 5 6 8 6 3 1 1 2 2 1 1 0 1 5 2 0 1 0 1 4 6 5 4 4 4 2 2 1 2 2 1 0 1 1 1 1 1 1 5 8 3 4 6 2 2 4 4 1 2 3 2 1 1 3 2 1 3 5 9 8 6 10 6 3 4 1 6 9 10 10 8 6 8 10 9 8 9 11 10
2 2 3 12 18 13 7 3 5 7 8 6 4 2 1 1 1 2 2 2 1 3 4 1 1 1 1 0 2 4 3 2 3 3 2 1 2 1 3 0 1 1 3 1 2 2 0 1 6 3 3 5 4 3 4 5 4 2 1 2 2 2 4 2 1 2 3 8 10 11 11 4 2 1 4 6 8 8 7 6 6 7 7 6 7 8 9 10
2 2 0 12 17 8 5 8 8 8 7 4 3 2 1 1 1 2 2 2 1 1 1 2 1 2 2 1 1 2 2 1 1 2 1 1 3 2 2 1 1 3 4 1 2 2 1 1 5 6 4 4 3 2 2 2 2 2 2 3 3 1 2 3 2 2 1 6 8 10 10 3 1 2 5 6 7 5 3 4 4 5 5 6 7 8 8 9
3 3 2 15 15 2 4 12 10 5 4 3 2 2 1 1 0 2 2 2 1 1 1 3 3 1 0 2 2 1 2 2 1 1 2 1 1 2 1 2 1 2 3 2 1 1 1 1 3 6 5 4 6 5 5 5 4 3 2 3 3 2 1 4 6 1 1 3 5 8 12 6 2 4 5 7 6 4 2 3 4 5 6 7 8 8 9 9
5 3 5 14 9 6 8 9 4 2 4 3 2 2 1 2 2 1 2 1 0 0 1 2 2 1 1 0 2 1 1 2 2 1 1 2 2 3 2 2 3 0 1 2 2 1 1 1 2 6 5 8 13 4 4 3 4 4 3 2 2 1 2 3 8 5 2 3 3 6 10 7 2 5 5 6 5 4 2 3 6 7 8 9 10 10 9 9
4 3 5 10 2 5 10 7 2 5 4 0 1 1 1 2 2 0 1 1 1 1 3 2 0 1 1 1 0 0 1 2 3 2 2 3 3 3 2 3 2 1 1 1 2 1 1 1 2 6 6 8 10 2 4 1 1 0 3 2 1 1 2 5 6 4 3 4 4 6 10 5 2 4 3 7 8 7 7 8 9 10 11 12 13 12 10 10
3 3 5 11 3 2 5 5 2 3 1 0 2 2 2 1 2 1 1 1 1 1 2 1 1 1 0 1 1 2 2 1 2 2 1 2 2 1 2 3 2 1 1 0 1 2 2 1 2 6 7 7 7 4 2 2 1 1 4 3 2 3 4 4 3 2 3 6 5 6 11 8 2 2 6 13 13 12 11 11 11 12 12 13 13 11 11 12
3 1 3 12 15 8 4 4 5 5 3 2 4 2 2 2 1 1 2 0 0 2 1 1 0 1 0 0 0 2 1 0 2 2 2 2 3 1 1 2 2 1 0 1 1 1 2 1 0 1 4 7 8 7 7 7 5 4 5 6 5 3 4 4 3 2 4 8 5 3 9 13 10 10 13 14 12 11 12 12 12 12 13 13 12 11 11 12
3 3 2 7 12 10 3 1 5 6 4 4 4 2 2 2 1 1 2 1 0 2 1 1 0 1 1 2 2 3 2 1 2 2 2 3 3 2 1 3 2 1 1 2 3 2 1 1 2 4 6 7 9 11 10 8 8 11 13 14 10 5 3 2 2 3 7 11 9 6 10 17 18 17 14 11 10 10 11 11 12 13 14 14 12 11 12 11
2 3 2 1 4 5 4 4 5 4 3 4 3 1 1 1 2 1 1 0 0 1 1 1 1 2 1 2 2 3 3 2 2 1 2 4 4 4 1 4 2 1 3 1 3 3 3 2 4 6 8 10 12 15 14 9 10 14 16 15 13 9 4 3 3 9 10 9 11 12 15 19 19 15 11 9 9 11 11 12 13 14 15 15 13 13 14 10
3 2 1 1 2 2 3 3 3 5 5 4 3 1 1 2 2 0 0 1 1 1 1 2 3 2 1 1 1 1 4 4 3 2 2 3 3 5 4 2 1 1 2 1 3 3 4 3 5 3 7 10 11 13 15 11 10 12 12 13 13 12 9 6 8 11 9 6 12 18 20 20 17 11 9 10 11 12 14 14 14 16 16 16 16 15 13 10
3 4 0 2 3 3 1 2 4 6 6 4 3 2 2 3 1 1 1 1 3 2 1 1 4 3 2 2 2 1 2 3 4 4 1 2 3 3 3 2 1 2 2 1 2 2 3 3 3 2 6 11 11 13 13 10 9 10 13 14 13 10 10 9 9 10 8 9 14 19 21 20 13 9 10 13 14 14 14 14 16 18 18 18 17 14 10 10
2 3 1 3 4 2 1 2 3 5 4 3 3 2 2 4 2 1 1 2 1 2 1 1 4 5 3 3 4 2 4 4 4 6 2 1 3 1 1 2 1 3 3 1 2 1 0 3 2 2 5 10 10 10 10 8 9 13 16 15 11 8 7 6 6 6 7 11 16 18 20 15 7 9 13 16 16 16 16 17 18 17 18 19 16 11 10 12
4 4 5 6 4 3 2 3 3 5 3 3 2 2 1 2 3 2 1 1 2 2 1 2 3 4 2 1 4 5 6 6 6 8 5 3 4 3 2 2 0 4 5 2 1 3 1 3 3 5 5 9 7 8 13 14 11 10 11 11 10 8 4 3 4 5 7 14 19 18 14 10 7 11 15 15 16 18 18 17 17 17 19 17 12 10 12 14
6 4 4 6 4 3 2 3 3 4 2 1 1 2 0 1 2 1 1 1 1 2 3 4 3 1 3 3 3 5 5 5 6 6 4 4 4 3 3 2 1 1 2 1 1 1 1 1 4 3 4 10 10 10 13 14 10 7 6 5 6 6 6 5 6 7 10 13 14 11 9 10 12 14 15 15 16 18 16 15 16 18 16 13 10 11 14 14
Wind_Direction
124 105 91 78 72 65 54 38 24 14 12 9 12 34 54 63 50 33 16 6 8 5 3 12 17 8 185 184 192 168 52 36 37 40 40 9 354 353 349 347 342 348 352 349 352 346 355 41 25 6 0 0 23 257 343 20 49 55 81 86 106 165 154 180 177 196 166 172 263 337 90 129 144 187 146 72 52 75 75 64 69 72 78 85 85 75 70 70
122 103 91 79 70 59 44 25 13 8 9 9 20 44 57 65 51 30 13 9 14 11 17 26 17 2 207 195 211 190 103 34 32 32 19 1 357 355 351 350 344 346 352 352 355 0 10 12 360 10 23 348 325 352 19 3 56 82 110 87 180 198 190 202 184 200 174 150 194 352 110 132 146 181 149 97 87 88 89 73 71 80 74 74 74 72 72 71
118 102 87 76 68 50 31 15 7 6 11 18 32 53 61 63 51 27 14 13 13 14 22 22 24 43 141 201 222 206 203 17 28 13 358 360 358 358 0 355 348 350 354 356 349 339 322 312 333 2 31 350 311 9 32 16 54 98 105 86 234 204 186 236 198 197 205 161 155 149 108 62 48 168 107 119 131 98 126 143 116 110 114 98 77 75 74 71
113 100 85 71 61 37 20 9 6 10 18 29 44 58 62 56 45 25 15 13 7 9 15 16 35 59 83 171 255 221 181 38 16 337 349 359 358 2 7 0 354 355 357 4 0 341 306 285 317 32 70 19 317 26 46 354 48 77 98 150 214 169 147 252 230 219 238 168 150 151 92 71 8 71 119 137 117 17 202 187 155 147 144 130 112 88 80 75
110 97 77 62 48 25 13 8 11 22 31 39 51 57 60 51 37 24 19 12 1 6 15 20 44 67 78 41 326 212 130 49 319 333 352 358 1 7 13 10 5 359 353 359 5 12 347 244 94 54 67 57 336 32 14 313 66 64 12 207 200 138 143 252 245 242 194 113 120 136 123 122 93 34 128 154 154 213 202 174 151 147 147 140 132 110 93 87
109 87 69 54 32 17 11 13 21 33 37 42 53 58 59 45 27 26 25 13 6 16 23 22 44 82 94 39 43 128 118 76 301 338 354 356 3 12 19 15 8 351 332 345 15 40 37 59 83 51 52 53 11 65 325 319 57 92 301 283 222 149 149 220 232 223 142 118 139 166 152 109 91 55 102 146 189 178 151 150 147 144 146 137 130 122 113 105
98 74 61 43 22 15 14 19 25 30 33 41 53 57 49 31 25 28 27 18 19 30 25 11 12 172 201 40 54 70 92 98 321 345 354 356 6 14 21 15 5 350 338 15 28 55 52 41 58 78 73 59 66 93 349 343 47 93 165 277 219 147 156 186 202 204 131 139 177 157 126 128 139 138 90 95 141 144 142 147 139 138 139 132 129 129 127 118
80 69 55 34 18 13 15 17 18 19 25 39 50 44 31 25 29 32 33 30 37 47 32 3 256 193 174 165 85 60 61 323 337 353 355 355 10 17 19 15 11 20 46 40 31 77 72 45 44 102 81 81 134 95 3 14 33 75 167 227 189 182 205 201 211 197 117 134 150 120 127 171 164 141 109 141 157 150 151 142 132 132 129 130 136 139 135 123
75 65 46 29 15 11 13 13 16 21 25 36 38 27 28 30 39 38 41 40 52 63 44 36 67 149 146 132 104 71 354 336 349 357 359 355 3 17 22 20 21 42 56 43 40 58 77 68 289 178 149 163 102 76 354 50 334 195 176 214 187 245 243 208 237 209 131 136 135 122 111 154 156 115 99 180 178 161 151 139 138 134 131 140 145 148 142 131
74 56 41 23 12 11 14 19 28 26 19 17 10 22 41 49 59 46 50 51 59 74 51 50 68 92 110 101 76 67 331 351 5 0 2 358 355 18 25 21 25 42 52 44 43 50 71 187 230 147 132 131 78 51 344 99 182 192 145 182 166 305 289 199 245 257 144 166 171 142 134 183 179 78 137 206 188 164 147 146 155 143 149 159 152 152 141 137
70 51 33 17 14 16 26 44 37 19 4 356 15 54 72 82 68 27 52 74 72 82 62 48 51 64 74 69 75 66 345 1 13 5 7 5 2 19 22 15 18 32 46 48 43 39 31 248 204 133 94 91 75 25 358 139 145 159 117 144 319 344 327 311 254 274 165 172 173 127 100 226 233 308 210 189 180 169 155 158 167 155 164 165 158 160 145 144
58 40 23 17 20 30 57 52 27 6 352 8 66 94 96 80 43 23 60 100 108 93 67 37 6 20 63 59 70 47 3 10 10 7 10 9 6 10 13 5 4 20 36 44 38 29 24 17 114 98 23 119 111 22 89 158 87 89 98 127 311 359 350 313 282 273 279 165 151 118 57 301 228 253 214 172 170 170 159 166 172 167 173 167 161 157 150 154
49 35 24 23 34 60 63 40 20 6 16 68 97 106 95 58 54 65 74 98 142 108 51 35 23 31 75 58 45 21 11 8 6 8 9 6 5 353 355 354 356 11 18 32 35 31 32 57 90 93 87 96 114 296 108 40 50 57 55 79 330 7 350 304 319 309 343 165 158 129 314 265 237 245 199 164 167 165 166 176 176 174 174 168 164 151 156 160
45 35 30 40 56 66 52 38 31 39 64 80 97 98 71 74 85 82 72 76 121 106 57 46 52 74 80 98 28 17 6 4 9 9 5 1 5 10 3 3 10 10 6 20 28 30 42 71 80 80 72 76 35 342 39 10 26 19 12 38 18 30 294 303 317 300 335 190 161 130 280 263 265 252 182 169 170 167 173 181 178 177 174 169 164 154 164 170
45 40 46 59 63 60 50 48 59 73 77 71 72 68 52 106 105 79 65 64 70 89 86 62 59 80 70 74 14 5 360 8 9 6 5 360 4 13 354 350 7 15 9 15 17 30 45 56 64 48 332 9 29 39 22 358 17 28 21 323 344 56 283 306 310 210 215 262 157 138 262 274 278 239 183 175 174 173 177 182 180 177 173 169 165 158 165 178
48 51 62 68 63 58 55 63 78 83 81 71 63 56 48 88 172 72 59 57 61 67 84 44 16 65 87 355 338 354 358 4 359 0 9 8 4 355 343 342 352 358 7 30 34 45 44 48 65 46 4 16 38 62 33 12 356 1 62 277 286 307 307 316 317 309 111 322 315 195 237 278 282 233 184 178 180 179 179 183 181 178 175 167 164 163 161 173
55 66 74 70 60 50 43 61 90 88 75 60 55 55 54 48 356 223 0 35 68 59 58 33 10 79 76 357 346 344 339 342 349 1 12 13 5 357 351 350 345 347 9 50 34 32 30 33 59 35 42 38 39 85 53 354 322 324 26 349 265 262 296 310 303 316 33 2 281 240 232 259 272 254 189 186 184 183 183 185 181 175 174 167 163 163 162 163
70 81 78 68 46 25 5 356 296 281 320 345 17 47 59 57 60 69 50 54 79 12 34 21 20 91 26 360 351 317 320 332 353 6 13 12 6 10 10 10 344 353 21 44 21 22 14 16 52 45 27 17 23 65 95 223 237 271 289 299 293 280 251 264 272 292 4 346 265 270 263 260 271 262 204 196 186 187 188 178 176 170 165 163 160 161 165 160
86 90 80 60 37 25 10 356 323 286 286 311 336 347 56 59 60 58 50 54 56 19 28 347 15 104 313 328 322 322 328 351 8 11 12 9 1 15 23 24 24 27 41 22 1 16 22 29 45 46 359 335 340 94 146 198 197 221 244 231 259 280 265 259 259 261 334 315 269 264 261 266 278 254 209 209 189 187 185 162 168 166 156 154 152 160 160 152
99 94 77 53 39 32 26 22 4 317 288 282 287 337 57 43 42 40 34 46 66 88 107 277 1 99 334 302 326 347 1 12 15 13 9 3 351 13 18 14 31 45 48 330 313 357 62 68 48 208 231 257 255 213 195 209 204 218 234 229 247 261 270 271 268 275 336 313 260 252 264 274 276 249 211 208 184 181 176 162 168 158 150 151 146 155 147 133
111 97 72 50 41 39 36 31 28 35 36 8 54 64 110 98 74 109 355 42 54 63 77 27 98 101 320 280 338 359 17 352 11 9 5 1 358 25 5 7 38 32 349 274 291 358 64 75 313 232 219 230 250 231 217 248 218 225 223 239 274 256 253 272 273 284 357 11 280 273 281 276 273 260 220 195 176 185 179 164 165 152 146 151 148 152 138 113
120 108 70 44 41 42 39 34 37 53 61 76 86 85 116 120 106 142 154 90 22 22 49 17 44 44 304 9 355 360 51 14 0 354 359 3 15 43 7 35 62 13 328 4 27 10 41 79 252 246 217 205 13 62 77 41 94 89 226 248 291 272 271 287 269 265 13 0 296 291 288 275 281 289 235 193 173 173 167 154 151 144 141 153 156 139 107 84
117 124 52 23 35 39 37 37 36 49 61 81 91 92 109 109 111 132 103 96 42 348 16 14 44 8 340 30 359 1 59 44 348 329 354 4 12 59 87 58 61 16 352 28 101 77 54 247 252 252 197 181 6 34 57 33 38 58 312 297 282 287 330 300 280 300 319 266 275 293 295 278 296 346 24 66 117 108 113 126 128 134 140 148 142 116 100 102
108 87 350 346 13 20 25 34 37 57 70 86 95 101 123 123 116 115 83 85 65 327 338 323 107 35 353 3 349 354 81 70 226 322 353 10 5 32 82 98 73 46 3 46 100 110 198 253 255 47 39 121 226 347 41 35 337 292 241 223 249 272 251 252 282 315 309 271 259 306 313 293 324 10 46 24 62 99 95 110 121 119 113 106 101 100 106 120
82 57 358 345 359 355 0 30 36 57 70 83 97 107 125 139 155 121 102 70 18 310 333 324 74 17 338 346 349 342 115 48 30 316 349 15 8 3 37 98 82 43 260 146 68 78 264 268 304 50 24 55 62 320 23 124 326 310 254 214 221 259 265 266 297 328 327 306 320 25 348 296 325 325 197 96 84 110 98 120 134 108 96 98 95 103 103 96
82 94 6 349 357 355 357 54 30 40 58 68 98 125 127 143 185 143 113 62 10 300 345 356 13 359 341 348 348 354 70 355 318 347 10 13 4 112 43 341 48 36 217 201 6 327 271 335 36 82 52 39 36 319 251 147 46 319 263 207 213 265 290 289 303 323 315 283 292 31 299 265 311 312 231 172 127 136 133 132 132 112 105 104 98 106 90 53
107 88 0 332 344 359 8 89 21 28 45 48 117 145 142 145 148 129 83 42 356 289 342 330 328 2 347 343 353 57 70 313 318 14 23 11 353 107 68 346 350 353 228 106 16 269 240 349 19 54 54 39 23 328 257 150 93 275 248 155 288 301 294 287 292 280 250 279 302 317 173 248 292 289 264 148 128 160 195 156 131 122 116 116 111 97 71 41
131 318 333 323 343 10 37 50 31 72 94 148 138 146 155 150 161 98 79 68 339 314 22 305 326 359 344 350 15 70 66 311 6 349 355 20 12 41 63 15 183 282 299 81 339 274 238 335 338 45 48 35 296 282 229 152 158 261 251 273 290 283 276 278 283 272 259 304 305 299 117 269 268 273 310 122 137 191 213 178 142 129 127 135 117 73 52 29
338 310 310 316 334 8 29 16 65 135 126 133 101 112 154 145 106 57 74 107 313 354 179 310 347 341 344 3 14 34 357 354 61 321 344 26 16 23 72 264 144 193 300 67 249 257 272 259 218 119 90 264 263 263 208 165 222 272 292 296 277 263 270 284 280 274 320 99 266 274 93 144 269 276 303 165 179 208 206 172 149 142 136 123 91 61 39 13
343 323 316 312 310 317 336 9 110 133 130 127 98 102 135 99 60 62 49 177 353 338 288 15 5 335 6 18 350 356 14 349 320 332 356 20 353 12 76 239 94 120 312 13 44 251 312 297 181 129 175 209 277 287 230 187 235 307 351 331 302 292 304 337 2 74 33 263 252 253 160 111 291 277 222 211 208 179 153 134 134 132 109 80 66 52 22 359
13 359 346 327 298 276 277 134 124 131 130 128 111 92 104 41 60 87 72 302 5 331 356 15 343 0 28 37 349 344 3 329 325 6 12 357 358 10 27 11 33 53 356 358 350 308 334 19 193 279 247 122 19 331 308 289 309 7 18 351 329 321 349 7 357 33 16 275 263 239 182 144 250 272 248 240 213 133 123 117 98 70 66 56 55 43 7 346
37 26 14 7 10 345 27 151 146 133 132 137 105 75 86 27 28 84 301 329 353 330 3 331 314 4 12 22 5 334 334 328 342 43 36 15 37 20 24 38 2 9 357 329 327 329 333 288 275 311 318 78 35 346 325 341 21 23 15 19 2 337 352 350 331 344 289 275 254 201 313 284 248 259 244 231 195 115 109 105 100 90 85 80 88 57 0 352
47 40 33 31 40 63 97 131 146 128 134 139 94 56 75 77 40 271 289 332 10 322 343 271 310 347 354 12 359 324 326 327 340 28 56 81 68 20 2 35 40 25 340 301 336 344 327 308 321 337 331 63 81 4 322 321 347 343 348 59 29 356 348 317 304 310 289 285 263 162 3 308 278 283 232 193 121 124 115 97 107 117 100 90 110 62 8 3
46 46 49 50 53 68 92 111 127 126 125 105 82 50 63 77 188 266 308 284 279 331 5 8 325 343 24 39 333 322 358 333 342 16 8 27 47 8 342 354 18 56 21 327 353 339 319 310 307 302 308 24 44 213 230 263 295 292 183 132 103 167 234 278 264 275 291 297 297 353 9 254 269 336 129 119 99 119 117 85 95 100 86 77 97 44 10 358
43 47 49 48 46 44 46 54 81 119 116 79 66 60 81 115 245 159 288 268 286 334 325 336 10 23 8 335 314 355 18 300 342 24 20 32 49 7 346 334 350 47 55 349 317 252 277 267 261 268 244 227 288 232 156 41 310 278 154 87 317 184 181 249 233 237 274 291 290 301 251 220 217 56 107 107 102 119 112 80 87 88 90 148 129 19 7 1
52 48 44 38 32 24 19 31 62 92 116 84 64 58 115 189 221 159 210 283 356 318 322 350 33 42 342 317 328 355 4 271 334 14 15 49 119 292 328 281 303 36 76 66 293 313 310 274 275 303 321 271 236 224 159 45 295 308 25 269 256 177 144 232 272 273 305 290 278 271 277 285 0 108 132 97 77 100 75 47 75 71 15 6 10 6 3 6
80 58 42 27 19 10 3 5 107 123 97 79 78 95 190 207 167 171 207 16 7 146 55 31 18 18 327 314 314 325 343 330 342 8 351 342 68 248 303 277 271 47 113 172 257 267 235 280 286 290 296 280 208 194 282 293 148 126 280 258 259 89 98 107 284 315 319 285 271 230 275 293 331 261 180 60 20 9 6 16 40 20 7 8 1 358 359 2
111 90 47 18 9 5 3 21 116 107 84 68 78 122 166 168 169 190 183 105 233 54 71 84 254 59 321 301 299 307 339 355 350 2 351 330 323 158 137 319 289 67 16 139 230 271 191 290 297 249 235 285 339 53 319 317 106 172 228 249 62 333 303 3 319 288 291 285 285 282 279 272 226 250 27 35 7 359 354 4 23 9 7 2 349 351 353 351
77 79 38 359 358 3 14 67 100 73 67 74 88 130 146 152 220 220 181 140 122 77 75 174 250 21 13 178 288 301 332 359 339 345 17 355 311 161 125 59 266 16 358 89 173 267 140 285 293 279 259 303 347 21 323 313 319 330 330 353 63 180 239 263 251 228 267 284 290 295 295 285 205 213 69 40 9 8 356 1 18 2 354 344 342 350 345 338
57 69 349 341 349 359 48 66 66 51 60 102 148 146 105 158 268 263 210 183 172 100 97 200 179 16 330 330 331 296 323 335 291 316 324 321 316 326 94 108 263 312 328 1 170 283 357 200 267 288 316 330 322 290 256 252 284 329 344 311 307 284 256 273 255 162 248 283 292 302 301 292 145 89 76 48 25 40 36 8 353 335 337 335 340 342 332 327
54 77 308 338 344 300 92 56 51 52 76 90 114 105 67 138 155 312 272 206 215 214 149 156 146 108 337 352 339 276 304 320 286 266 281 302 353 324 349 115 165 301 333 359 22 331 311 198 252 294 326 320 280 247 191 183 176 175 224 244 251 256 299 300 288 252 146 250 269 290 294 288 152 116 81 55 47 77 80 357 327 319 331 333 334 333 324 320
65 91 316 346 17 109 81 54 25 44 91 76 70 110 72 103 115 331 316 49 4 299 62 104 123 104 149 263 308 252 303 300 262 266 275 248 212 241 262 118 139 138 29 326 306 274 240 128 262 277 268 265 276 280 124 167 174 169 213 201 177 179 126 264 282 296 303 260 251 270 282 288 160 131 88 63 69 88 66 351 337 330 331 332 331 328 322 316
87 140 344 1 66 114 63 61 344 22 72 193 351 82 34 87 126 336 350 19 356 1 28 39 103 39 152 215 311 226 278 254 222 237 264 257 254 229 196 151 156 131 61 339 312 307 287 60 321 286 266 260 274 313 98 112 96 138 268 246 182 221 201 223 255 303 310 280 290 284 281 291 163 161 72 36 30 23 7 354 345 334 331 333 330 327 322 315
121 163 11 16 13 193 74 102 137 55 100 190 52 37 349 89 122 62 30 339 347 101 66 40 216 29 249 184 136 214 272 316 243 271 294 247 263 212 152 155 159 137 52 274 316 327 306 320 341 327 325 318 322 353 350 312 12 258 262 263 224 254 282 270 269 343 302 260 254 272 284 296 265 248 353 8 8 3 353 346 343 334 330 329 325 323 318 314
78 92 335 17 37 65 102 149 142 130 153 105 77 36 2 53 67 93 139 276 331 153 132 1 218 149 214 226 327 275 293 295 256 314 11 273 267 314 141 156 143 123 326 311 328 323 278 247 98 358 319 315 319 318 311 317 324 293 277 289 292 278 274 280 294 321 286 273 255 223 274 293 304 320 343 358 0 352 342 338 337 331 326 323 319 317 316 314
82 63 327 357 28 53 74 110 101 113 148 127 85 20 58 75 317 283 134 108 19 145 108 345 272 141 47 37 14 319 302 260 273 336 338 279 272 298 198 145 138 176 145 30 10 64 86 279 215 194 215 253 271 276 293 320 315 299 298 299 304 300 241 221 313 288 276 287 287 265 282 299 311 325 341 357 353 339 332 330 330 327 325 323 319 316 315 315
97 86 70 354 7 35 35 17 48 86 141 132 102 44 98 58 322 331 104 166 112 85 72 25 39 51 3 13 22 310 295 321 336 312 280 261 264 297 303 125 114 250 139 57 345 80 78 308 258 221 227 247 263 275 290 305 291 287 294 296 301 308 288 206 234 268 279 296 295 295 306 310 313 328 347 352 341 333 328 325 325 325 325 324 321 317 317 322
74 131 163 122 80 66 40 26 66 79 68 83 103 117 92 40 18 72 254 335 30 25 83 28 9 16 241 282 63 298 308 339 329 269 282 296 302 328 343 70 47 342 110 35 331 105 114 259 254 239 257 263 269 278 286 290 281 277 282 286 292 302 298 271 255 269 281 283 286 301 313 310 310 330 350 345 338 331 325 322 323 324 325 325 322 320 323 332
80 112 1 21 92 144 145 57 93 83 59 63 82 80 121 121 92 218 235 25 11 333 54 27 314 303 256 218 134 198 290 335 314 284 266 309 310 339 337 323 346 0 66 21 323 115 139 257 263 263 283 282 279 279 281 283 284 286 288 289 292 293 287 281 276 281 281 268 279 300 308 305 312 344 346 337 333 325 320 322 325 326 327 324 321 324 332 331
138 146 148 64 70 95 64 38 76 81 49 46 75 70 128 140 160 236 192 102 54 312 8 15 280 288 269 194 157 217 239 204 244 260 218 311 306 274 249 259 286 338 6 54 327 358 33 283 317 39 313 296 287 283 286 285 283 288 291 293 299 304 305 309 305 302 299 293 297 305 305 303 331 358 336 327 327 325 324 326 327 326 323 321 324 331 333 325
105 127 138 111 67 1 20 36 64 90 47 11 91 142 142 160 188 192 179 187 181 207 215 200 253 289 332 152 185 243 249 207 218 242 219 215 254 228 231 247 309 341 346 18 351 0 11 295 349 39 338 298 297 314 315 309 298 293 300 308 317 327 333 309 285 295 309 309 309 310 308 312 342 340 326 323 327 327 324 323 324 322 320 324 330 330 326 325
101 90 107 104 80 355 24 30 33 80 80 334 124 157 188 188 204 160 109 242 218 201 208 184 183 283 352 337 259 251 251 227 230 246 223 201 229 243 252 246 146 323 309 355 347 356 87 319 324 15 324 298 310 325 315 312 319 325 322 322 328 332 323 301 294 304 309 309 311 315 321 328 333 330 324 323 326 325 322 323 321 317 321 330 329 321 323 327
Height
820 820 820 820 820 820 819 819 818 818 817 816 815 815 814 814 814 813 813 812 812 811 810 809 808 808 808 808 808 808 807 807 805 803 804 807 808 806 805 803 802 800 799 798 796 796 795 795 796 796 795 796 798 798 797 798 798 801 810 817 821 826 825 822 823 823 821 821 820 822 824 825 830 833 831 833 836 839 841 841 841 841 842 843 843 844 843 842
820 821 820 820 820 820 819 819 818 818 817 816 815 815 814 814 814 814 813 813 812 811 810 809 808 807 807 807 807 807 807 807 805 804 806 808 807 806 805 803 801 800 798 797 796 796 796 797 797 797 798 798 800 799 799 800 800 806 815 819 823 824 822 819 819 819 818 820 821 822 825 823 824 829 828 831 840 841 839 844 845 843 844 844 844 843 842 841
821 821 821 820 820 820 819 819 818 818 817 816 816 815 814 814 814 814 813 813 812 811 810 809 808 807 807 807 807 807 807 806 806 806 807 807 806 805 804 802 800 799 798 797 797 797 797 798 798 799 800 800 801 800 800 801 802 809 814 819 823 821 819 819 818 816 816 818 820 820 823 823 824 827 826 831 840 840 838 842 844 844 845 844 844 843 842 842
821 821 821 820 820 820 820 819 819 818 817 816 816 815 815 814 814 814 813 813 812 811 810 809 808 807 807 807 806 807 806 807 810 810 809 807 806 805 803 802 800 798 797 797 797 796 797 798 798 799 800 802 803 802 803 804 804 809 814 817 819 818 818 817 817 816 817 819 819 821 822 823 826 827 828 831 833 837 839 838 839 842 843 843 844 843 843 841
821 821 821 821 821 820 820 819 819 818 817 816 816 815 815 815 814 814 813 813 812 811 810 809 808 808 808 806 806 804 806 813 815 811 809 807 806 805 803 801 800 799 798 797 796 796 795 797 798 800 801 803 804 804 806 807 806 811 816 816 815 818 817 816 818 817 819 820 819 823 822 823 827 828 831 829 824 830 837 837 838 840 841 842 842 842 842 842
822 821 821 821 821 820 820 819 818 818 817 816 816 815 815 815 815 814 813 813 812 811 810 809 808 808 808 806 805 803 808 818 816 810 810 808 806 805 803 802 800 799 798 797 796 795 795 797 798 801 803 806 808 809 809 810 809 813 819 817 816 817 815 816 818 816 819 820 818 820 821 825 827 828 833 832 827 830 835 836 838 839 839 840 840 841 842 842
822 822 821 821 821 821 820 819 819 818 817 816 816 816 815 815 814 814 813 813 812 811 810 809 808 808 807 807 806 806 810 817 814 811 810 808 807 806 804 803 801 799 798 797 796 796 797 798 800 804 806 808 811 812 812 811 809 812 818 817 815 816 814 815 815 814 817 816 816 820 821 824 824 825 832 834 833 834 835 836 837 837 839 839 840 841 841 841
822 822 822 822 821 821 820 819 818 818 817 816 816 816 815 815 814 814 813 813 812 811 810 808 807 807 806 807 807 809 814 816 814 812 810 809 808 806 805 803 801 799 798 798 798 798 799 801 804 807 808 811 812 812 813 812 811 814 816 815 815 815 813 814 813 813 817 817 819 821 820 823 825 826 831 835 835 835 835 836 837 837 838 839 840 840 840 841
822 822 822 822 821 820 820 819 818 818 817 816 816 815 815 815 814 814 813 813 812 811 810 808 807 806 806 807 806 811 818 817 814 812 811 809 808 807 806 804 802 801 799 800 800 798 801 804 806 806 807 812 811 811 813 813 814 815 814 814 814 813 812 814 814 813 816 820 821 821 821 827 829 827 830 836 835 834 836 836 837 837 838 839 839 840 840 840
823 822 822 822 821 820 820 819 818 818 816 816 815 815 815 814 814 813 813 813 812 812 811 809 808 807 807 807 808 816 820 816 815 813 812 810 809 808 806 805 804 802 801 801 801 800 803 804 804 803 804 809 811 813 815 813 814 816 815 814 813 813 813 814 813 813 817 820 820 820 824 829 830 827 828 834 835 834 835 835 837 837 837 839 839 840 840 840
823 823 822 822 821 821 820 819 818 817 816 816 815 815 814 814 814 813 813 813 812 812 811 811 810 809 808 807 812 820 819 816 816 813 812 811 809 808 806 806 805 804 803 803 803 803 803 802 802 802 804 808 811 814 815 813 815 816 814 814 815 815 814 814 813 814 816 819 819 821 827 832 833 827 822 828 833 832 833 835 836 836 837 838 838 839 839 840
823 822 822 822 821 821 820 819 818 817 816 815 815 815 814 814 814 813 813 813 813 812 812 811 811 810 809 809 816 821 818 817 816 814 813 811 810 809 807 807 806 806 805 804 804 804 803 802 801 803 806 809 812 815 814 815 816 815 815 816 816 816 815 814 814 814 814 817 820 822 826 829 830 824 819 824 830 831 833 834 835 836 837 838 838 839 840 840
823 822 822 822 821 820 819 819 817 816 815 815 815 815 815 815 814 814 813 813 813 812 812 812 811 809 809 814 820 820 818 818 817 814 813 811 810 809 808 808 807 807 806 806 806 805 804 803 801 804 808 809 813 815 814 816 816 816 820 821 821 822 819 816 816 815 814 816 818 819 821 817 817 819 819 824 827 830 832 833 834 835 836 837 838 839 839 840
823 822 822 822 821 820 819 819 818 817 816 816 815 815 815 815 814 814 813 813 813 812 812 812 811 810 811 818 820 818 819 818 816 814 812 811 810 809 809 809 808 808 807 807 807 806 806 804 802 805 811 814 816 815 816 820 821 823 824 827 835 831 820 817 819 817 814 816 816 819 821 812 809 816 821 823 824 827 830 831 833 834 836 837 838 839 839 840
823 822 822 822 821 820 820 819 819 818 817 817 816 816 816 815 815 814 814 814 813 813 813 812 812 811 814 820 819 819 819 817 816 816 814 813 811 810 810 808 809 808 808 808 808 808 807 805 807 813 817 818 819 818 820 824 827 833 828 828 841 836 825 821 819 818 816 816 816 819 821 812 807 813 819 822 823 825 828 830 832 833 835 836 837 838 838 839
823 823 822 822 821 821 821 820 820 819 818 818 817 817 816 816 815 815 815 814 813 813 812 813 813 812 818 822 820 820 820 818 818 817 816 814 812 812 811 809 809 808 808 809 809 809 808 809 816 824 823 823 828 826 824 825 829 839 837 831 836 834 832 827 817 818 819 817 817 817 818 811 806 811 818 821 822 825 827 828 830 831 833 834 835 837 837 838
823 823 823 822 822 821 821 821 821 820 819 819 818 818 817 816 815 815 815 814 814 814 813 815 814 813 820 823 822 823 822 822 820 818 816 814 814 813 811 810 809 809 809 809 809 810 811 815 822 827 829 834 838 828 824 830 830 835 841 837 837 836 837 833 821 819 821 819 818 816 816 810 805 811 817 819 820 823 824 826 828 830 831 833 834 835 836 837
823 823 823 822 822 822 821 821 821 820 819 819 819 819 818 818 816 815 816 815 814 814 814 816 815 820 827 827 828 829 825 824 822 818 816 814 814 814 813 812 812 810 810 812 813 815 817 822 826 828 832 838 840 832 828 836 837 837 841 839 839 840 839 836 827 820 819 820 818 816 815 810 805 811 815 816 818 819 820 823 826 828 830 831 833 834 835 836
823 824 823 823 823 822 822 821 820 820 819 819 819 819 818 819 817 817 818 817 819 823 826 828 826 832 837 833 832 829 825 825 822 819 816 815 814 814 814 814 814 813 816 819 820 823 825 825 828 831 835 840 843 842 838 839 841 840 843 843 841 840 837 833 827 821 822 821 816 814 812 807 804 808 812 813 816 818 819 822 825 827 829 830 832 833 834 835
824 824 823 824 823 823 822 821 820 819 819 818 818 818 819 821 822 826 826 825 830 835 836 837 835 837 838 835 832 828 825 825 822 820 818 816 815 814 815 816 817 818 823 826 825 830 831 830 837 841 842 844 843 845 844 843 845 843 845 845 843 843 837 829 823 820 824 821 811 808 810 808 804 805 808 811 814 817 819 821 823 826 828 829 831 832 833 835
824 824 824 824 824 824 823 822 821 819 818 818 817 819 823 825 827 832 834 834 837 837 836 837 836 836 835 834 832 829 828 825 822 822 820 818 815 816 820 822 821 823 829 833 829 831 831 833 843 844 842 844 843 845 845 843 845 842 842 841 840 841 834 824 822 821 824 822 810 808 811 807 803 803 804 809 813 815 816 819 822 825 828 829 829 831 834 835
825 825 825 825 824 824 823 822 821 820 820 819 818 822 826 827 827 830 832 836 838 836 836 836 835 835 834 833 832 830 830 827 824 823 822 820 817 819 826 828 828 829 834 834 830 832 834 837 841 840 842 845 845 848 845 841 841 839 840 841 836 835 831 823 820 820 823 823 810 806 813 807 802 805 806 807 809 812 815 817 821 824 827 828 829 833 835 836
825 825 825 825 825 824 824 823 822 822 821 821 821 824 827 827 828 829 829 834 838 837 837 836 835 836 834 833 833 831 830 832 833 829 825 824 823 826 829 831 833 835 835 831 829 833 836 838 839 840 843 842 840 844 843 838 837 837 839 838 831 832 834 824 817 818 824 826 816 811 816 811 807 808 809 811 810 812 817 818 821 824 826 828 831 834 836 836
826 826 826 826 825 825 824 824 823 823 822 823 824 825 827 827 828 829 830 836 839 838 837 837 836 836 836 835 834 833 833 836 838 833 830 829 829 831 831 834 836 837 841 839 833 834 836 838 840 842 842 839 837 839 840 836 833 836 837 835 830 828 832 828 824 825 823 823 821 816 809 802 806 810 810 815 815 815 819 820 823 826 827 831 833 835 836 837
826 826 826 826 825 825 824 824 824 824 824 825 825 826 827 827 828 828 830 838 841 838 837 837 837 837 837 837 835 836 836 836 837 835 833 833 832 833 834 837 837 837 844 846 840 837 838 841 842 839 837 838 837 835 839 839 837 837 832 829 827 825 830 832 832 833 826 817 815 818 813 802 802 807 812 818 817 818 822 821 823 827 829 832 834 836 837 838
826 826 826 826 825 825 824 825 825 825 825 826 826 827 827 827 828 827 830 841 846 843 840 838 839 839 837 838 838 837 839 837 836 836 835 834 834 834 835 839 839 838 842 845 842 839 839 843 843 838 836 837 837 836 840 843 843 839 830 828 829 830 834 829 829 835 830 818 813 819 826 819 803 799 811 820 818 821 823 821 824 827 830 831 834 836 837 838
827 827 826 826 826 825 824 825 826 826 826 827 827 827 827 827 828 827 833 847 852 849 845 841 841 841 839 842 840 838 844 843 836 836 836 835 835 834 835 840 840 840 843 843 840 839 839 839 839 840 838 837 836 837 840 844 844 835 831 835 832 830 831 826 830 838 834 827 822 819 823 823 809 803 816 822 820 823 822 823 827 827 829 832 834 836 837 838
827 827 826 826 826 825 825 826 826 826 826 827 827 826 827 828 828 829 837 853 856 850 848 846 842 841 842 843 842 843 847 847 841 839 837 836 835 834 837 841 842 841 846 844 837 839 841 837 837 839 839 839 837 836 840 845 842 830 830 837 833 830 829 828 833 836 837 835 822 813 816 818 808 806 821 825 820 823 822 823 827 827 830 832 833 836 836 837
827 827 826 826 826 826 826 826 826 826 827 827 827 827 828 827 828 832 841 855 857 850 851 848 842 846 849 845 846 850 848 847 849 844 839 839 838 837 839 844 844 842 846 846 837 838 843 841 843 842 839 839 836 836 841 843 838 831 834 836 831 830 829 830 835 833 835 834 817 808 813 817 809 800 813 821 816 817 820 823 827 828 830 831 832 835 834 836
827 827 827 826 826 826 826 826 826 826 827 827 827 827 828 828 832 840 850 858 857 855 854 850 850 857 857 849 848 853 852 851 853 848 843 845 842 840 844 845 845 842 843 845 839 840 845 847 848 844 840 841 839 839 842 843 840 834 835 832 824 827 829 831 836 833 831 824 811 811 815 820 818 801 800 812 809 808 816 824 828 827 828 829 830 833 833 834
827 827 826 826 826 826 826 826 826 826 827 827 827 827 828 833 840 848 858 861 858 859 858 857 861 863 863 861 857 858 857 853 854 851 848 850 848 847 846 847 848 843 840 842 841 841 843 844 845 843 842 844 842 839 839 844 846 837 833 832 824 824 827 826 828 830 829 817 806 815 820 824 824 806 795 804 808 811 818 824 827 826 826 828 830 832 834 835
827 827 826 825 825 825 825 826 826 827 827 827 827 828 831 839 848 858 865 861 859 865 866 866 868 866 868 869 865 865 863 857 855 856 858 860 862 864 863 864 864 853 846 851 851 844 839 841 845 843 843 845 842 839 836 837 838 835 834 835 833 833 834 830 828 830 828 816 807 816 822 821 816 803 796 801 810 819 822 823 826 827 828 830 832 833 834 835
828 827 826 826 825 825 825 826 826 827 827 827 828 830 834 841 856 872 873 864 866 873 873 873 873 871 871 866 864 869 867 860 858 859 863 864 866 871 875 877 876 864 857 860 858 851 842 841 844 840 840 844 843 840 838 835 835 838 838 838 840 845 850 847 843 841 832 814 805 814 824 820 807 799 801 808 816 822 824 825 826 827 830 831 832 833 834 834
829 828 827 827 826 826 826 826 827 827 827 827 829 832 838 849 867 878 874 871 876 877 876 879 875 870 869 866 869 872 864 861 864 862 861 861 862 866 870 873 876 872 867 863 864 863 853 843 840 837 839 844 842 841 843 841 840 843 844 845 843 843 850 852 846 842 834 820 813 818 823 816 805 806 812 816 821 824 824 825 826 828 831 832 832 833 833 833
829 829 828 827 827 827 827 827 827 827 826 828 832 838 847 861 875 877 875 878 881 878 877 881 874 865 865 868 873 875 868 864 866 865 863 865 868 870 872 874 878 878 871 864 867 870 862 849 841 841 844 844 841 843 846 842 839 845 849 846 841 838 841 845 844 842 843 840 834 825 817 808 806 816 822 821 821 823 825 826 827 831 832 833 833 833 832 832
830 830 828 828 829 828 827 827 826 827 828 827 833 850 864 873 878 877 880 883 884 883 879 875 871 866 866 869 869 872 873 869 867 865 865 870 875 876 877 879 881 881 875 870 872 871 863 849 840 842 845 844 845 846 847 843 837 843 847 839 840 846 842 842 847 846 850 850 835 819 811 807 810 817 820 820 821 823 825 827 829 833 833 832 832 831 829 828
830 830 829 829 829 828 828 828 826 826 827 828 840 864 879 882 883 885 888 887 888 890 880 869 872 874 873 872 867 868 871 869 869 867 865 870 873 874 877 879 881 882 880 878 875 874 872 856 843 846 843 841 850 848 844 848 844 842 845 838 841 848 845 851 856 849 849 846 826 812 811 812 814 816 816 820 823 822 823 826 830 832 831 830 830 829 826 825
830 830 830 830 830 829 828 826 827 826 828 838 858 877 884 884 888 892 892 890 890 888 877 871 875 877 877 875 870 873 874 867 868 870 868 868 870 874 878 879 881 884 885 883 876 877 881 864 846 850 848 841 849 848 841 846 849 846 845 842 845 847 846 855 861 854 855 849 826 812 812 813 813 813 818 824 825 825 826 828 832 833 831 832 831 828 825 824
830 830 831 832 830 830 829 827 829 827 828 847 869 879 882 885 889 893 892 891 891 884 876 877 880 878 879 879 875 879 880 874 873 873 870 870 870 873 880 881 880 883 886 886 880 878 881 871 852 849 851 845 843 843 838 841 847 847 845 846 850 850 848 851 854 853 856 850 835 821 813 813 815 815 823 829 828 831 834 834 835 835 834 835 831 828 826 825
830 831 833 833 830 831 831 826 830 835 842 862 876 879 883 885 887 891 892 891 889 883 878 881 883 879 878 881 882 883 883 879 878 875 871 874 872 870 881 887 882 883 887 887 884 880 879 877 862 848 851 851 843 841 841 842 845 846 844 845 847 846 846 850 851 850 852 847 841 834 819 813 818 820 824 830 831 835 838 837 837 836 835 833 829 827 826 824
830 832 834 833 830 831 829 830 845 858 865 875 880 881 885 885 884 889 892 892 889 886 884 884 884 881 879 881 882 885 884 879 879 876 872 875 873 870 882 893 889 887 887 881 881 883 879 880 873 860 858 853 842 841 845 847 849 848 846 844 845 847 850 856 853 847 851 849 842 842 830 814 815 820 824 829 833 835 838 838 837 835 833 830 827 825 824 823
831 835 836 833 831 830 830 843 867 876 873 877 880 882 885 885 885 886 888 891 889 886 886 885 885 885 884 882 883 886 884 878 877 876 872 875 875 873 884 896 895 893 888 879 882 887 884 884 883 874 865 852 842 846 854 855 853 852 852 850 852 854 854 859 855 847 853 853 844 845 837 817 814 819 822 827 832 834 835 835 834 831 828 826 824 823 822 820
834 837 836 834 832 831 834 852 873 878 878 884 886 886 887 885 885 886 887 887 886 885 884 884 886 885 884 885 885 884 882 878 875 874 874 876 877 881 891 896 895 894 890 882 883 887 885 885 882 870 857 847 843 849 857 858 853 850 850 851 854 854 851 855 856 854 858 855 848 848 836 815 812 817 817 821 827 830 832 831 831 828 825 822 821 820 819 817
837 837 836 835 831 830 836 851 866 875 882 884 883 884 887 887 886 884 885 886 886 885 882 883 887 886 885 888 886 883 882 878 874 877 879 876 879 889 896 895 893 892 890 885 885 886 881 879 879 873 865 854 845 846 849 851 852 850 848 850 851 853 856 857 857 861 860 845 842 850 834 808 805 811 813 818 825 829 831 830 829 827 823 822 820 818 817 814
837 838 839 837 833 834 846 857 861 869 879 879 878 883 884 884 887 887 886 887 890 890 885 884 888 888 888 889 886 884 885 879 875 879 882 878 880 889 894 894 894 893 893 894 894 890 883 880 881 881 882 877 865 856 850 848 853 852 848 850 852 855 861 858 856 863 859 839 836 847 833 808 802 807 814 822 829 832 831 828 827 826 823 821 819 816 814 811
836 840 843 843 842 846 859 869 865 864 872 873 874 882 882 880 886 890 889 887 890 892 888 887 889 887 886 886 883 881 883 883 881 880 880 877 877 885 893 894 894 895 896 897 896 892 888 887 883 879 880 879 870 860 853 855 860 856 849 850 852 856 862 862 861 862 853 839 834 835 826 813 808 813 822 830 834 833 831 828 826 824 821 819 817 814 812 810
838 846 852 849 849 853 860 868 867 865 869 869 871 879 882 880 883 887 887 887 890 891 889 888 888 884 882 884 883 881 882 884 885 882 881 882 880 885 893 895 896 897 896 898 898 894 889 885 882 879 877 872 867 863 860 864 866 859 854 853 852 855 859 862 862 852 844 846 840 825 822 823 820 822 830 835 835 833 830 827 824 822 820 817 814 812 810 808
842 852 860 855 854 859 860 864 869 869 870 873 878 882 882 880 882 882 884 888 890 889 885 883 886 886 886 887 885 882 882 882 881 881 882 887 888 885 886 892 897 898 896 897 898 895 890 886 884 883 878 873 872 869 865 866 865 859 858 856 852 852 852 855 855 847 847 856 845 825 827 832 827 828 835 837 835 833 829 826 824 821 818 815 812 810 808 808
848 853 862 860 860 867 871 872 873 870 870 875 879 882 882 879 880 884 888 887 884 887 886 880 881 887 889 891 888 884 884 883 882 883 885 889 891 888 883 886 892 898 897 894 896 898 892 886 887 889 882 875 872 868 864 865 863 858 854 852 851 851 852 853 853 850 852 853 843 834 836 835 831 835 838 836 833 831 828 825 822 819 816 814 811 809 808 808
844 846 854 859 863 872 876 876 872 866 871 877 876 880 885 881 879 886 891 886 879 883 886 881 882 888 890 892 891 885 885 886 884 886 890 891 892 891 887 885 889 895 895 891 895 898 891 886 891 891 883 875 867 861 860 862 863 860 854 850 850 851 853 856 854 852 852 849 842 841 840 834 833 838 839 835 832 829 826 823 821 818 815 812 809 809 809 807
840 842 846 849 861 873 873 874 875 866 868 876 876 879 885 882 882 885 886 889 886 882 885 885 885 889 891 892 890 885 886 890 888 888 892 892 892 891 890 890 893 894 892 892 897 896 892 892 892 891 888 876 861 857 859 859 860 858 851 847 848 851 856 860 857 854 854 850 844 843 842 839 838 839 837 834 831 828 825 823 820 817 813 811 810 810 808 805
841 843 844 844 859 875 874 874 876 868 870 880 883 884 884 883 889 888 881 886 892 888 888 890 889 888 886 884 885 886 889 892 891 891 894 894 895 895 893 894 896 894 892 895 899 900 900 896 892 896 892 871 858 862 866 862 855 848 846 850 852 852 856 858 855 853 852 849 848 848 848 844 841 839 836 833 830 829 826 823 820 815 812 812 811 809 806 804